When you browse on this site, cookies collect data to enhance your experience and personalize the content and advertising you see.
Visit our Privacy Policy to learn more. By continuing to use the site, you agree to this use of cookies and data.
  • In Sweden
  • List of Countries
  • For 7 days
  • Water Temperature
  • Weather Map
  • Weather Widgets
  • user-avatar
    Login

    Hourly Weather Bolotnikovo

    Today, 16 September, Monday

    Time Temperature Precipitation Wind Pressure Humidity
    00:00 +9°C° 0 mm 3 mps 746 mmHg 72%
    01:00 +8°C° 0 mm 4 mps 746 mmHg 71%
    02:00 +8°C° 0 mm 4 mps 745 mmHg 71%
    03:00 +8°C° 0 mm 5 mps 745 mmHg 71%
    04:00 +8°C° 0.5 mm 6 mps 744 mmHg 76%
    05:00 +8°C° 0.5 mm 6 mps 744 mmHg 82%
    06:00 +8°C° 0.5 mm 7 mps 743 mmHg 87%
    07:00 +8°C° 0.4 mm 6 mps 742 mmHg 86%
    08:00 +8°C° 0.4 mm 6 mps 742 mmHg 84%
    09:00 +9°C° 0.4 mm 6 mps 741 mmHg 82%
    10:00 +9°C° 0.1 mm 6 mps 741 mmHg 81%
    11:00 +10°C° 0.1 mm 6 mps 740 mmHg 80%
    12:00 +10°C° 0.1 mm 6 mps 739 mmHg 79%
    13:00 +10°C° 0.1 mm 6 mps 739 mmHg 78%
    14:00 +11°C° 0.1 mm 6 mps 739 mmHg 78%
    15:00 +12°C° 0.1 mm 5 mps 739 mmHg 77%
    16:00 +12°C° 0.1 mm 5 mps 738 mmHg 79%
    17:00 +10°C° 0.1 mm 5 mps 738 mmHg 81%
    18:00 +10°C° 0.1 mm 5 mps 738 mmHg 83%
    19:00 +10°C° 0 mm 5 mps 738 mmHg 83%
    20:00 +10°C° 0 mm 5 mps 739 mmHg 84%
    21:00 +10°C° 0 mm 5 mps 739 mmHg 84%
    22:00 +9°C° 0 mm 5 mps 739 mmHg 86%
    23:00 +9°C° 0 mm 5 mps 738 mmHg 88%

    Tomorrow, 17 September, Tuesday

    Time Temperature Precipitation Wind Pressure Humidity
    00:00 +9°C° 0 mm 5 mps 738 mmHg 90%
    01:00 +8°C° 0 mm 4 mps 738 mmHg 91%
    02:00 +8°C° 0 mm 4 mps 738 mmHg 91%
    03:00 +8°C° 0 mm 4 mps 739 mmHg 92%
    04:00 +8°C° 0 mm 4 mps 738 mmHg 92%
    05:00 +7°C° 0 mm 5 mps 738 mmHg 92%
    06:00 +7°C° 0 mm 5 mps 738 mmHg 92%
    07:00 +9°C° 0 mm 5 mps 738 mmHg 86%
    08:00 +10°C° 0 mm 6 mps 738 mmHg 80%
    09:00 +11°C° 0 mm 6 mps 738 mmHg 74%
    10:00 +12°C° 0.1 mm 7 mps 738 mmHg 68%
    11:00 +14°C° 0.1 mm 7 mps 738 mmHg 62%
    12:00 +14°C° 0.1 mm 7 mps 737 mmHg 57%
    13:00 +14°C° 0.1 mm 7 mps 737 mmHg 55%
    14:00 +15°C° 0.1 mm 7 mps 737 mmHg 54%
    15:00 +15°C° 0.1 mm 7 mps 737 mmHg 53%
    16:00 +13°C° 0 mm 6 mps 737 mmHg 56%
    17:00 +12°C° 0 mm 5 mps 737 mmHg 60%
    18:00 +11°C° 0 mm 4 mps 737 mmHg 63%
    19:00 +11°C° 0 mm 4 mps 738 mmHg 66%
    20:00 +10°C° 0 mm 4 mps 738 mmHg 68%
    21:00 +8°C° 0 mm 4 mps 738 mmHg 71%
    22:00 +9°C° 0 mm 3 mps 738 mmHg 71%
    23:00 +8°C° 0 mm 3 mps 738 mmHg 72%

    Day after tomorrow, 18 September, Wednesday

    Time Temperature Precipitation Wind Pressure Humidity
    00:00 +8°C° 0 mm 3 mps 738 mmHg 73%
    01:00 +8°C° 0 mm 3 mps 738 mmHg 74%
    02:00 +8°C° 0 mm 3 mps 738 mmHg 76%
    03:00 +7°C° 0 mm 3 mps 738 mmHg 77%
    04:00 +7°C° 0 mm 3 mps 738 mmHg 78%
    05:00 +8°C° 0 mm 3 mps 738 mmHg 79%
    06:00 +8°C° 0 mm 3 mps 738 mmHg 80%
    07:00 +8°C° 0.1 mm 4 mps 738 mmHg 77%
    08:00 +10°C° 0.1 mm 4 mps 738 mmHg 75%
    09:00 +10°C° 0.1 mm 5 mps 738 mmHg 72%
    10:00 +10°C° 0.2 mm 5 mps 738 mmHg 70%
    11:00 +12°C° 0.2 mm 5 mps 738 mmHg 67%
    12:00 +12°C° 0.2 mm 5 mps 737 mmHg 64%
    13:00 +13°C° 0.2 mm 5 mps 737 mmHg 63%
    14:00 +13°C° 0.2 mm 5 mps 737 mmHg 63%
    15:00 +13°C° 0.2 mm 5 mps 737 mmHg 63%
    16:00 +12°C° 0.2 mm 4 mps 737 mmHg 67%
    17:00 +11°C° 0.2 mm 3 mps 736 mmHg 71%
    18:00 +12°C° 0.2 mm 2 mps 736 mmHg 76%
    19:00 +10°C° 0.2 mm 2 mps 735 mmHg 78%
    20:00 +10°C° 0.2 mm 2 mps 735 mmHg 80%
    21:00 +11°C° 0.2 mm 1 mps 735 mmHg 82%
    22:00 +10°C° 0.2 mm 1 mps 734 mmHg 85%
    23:00 +10°C° 0.2 mm 1 mps 733 mmHg 87%

    19 September, Thursday

    Time Temperature Precipitation Wind Pressure Humidity
    00:00 +10°C° 0.2 mm 1 mps 733 mmHg 90%
    01:00 +10°C° 0.9 mm 1 mps 733 mmHg 91%
    02:00 +9°C° 0.9 mm 2 mps 733 mmHg 92%
    03:00 +8°C° 0.9 mm 2 mps 733 mmHg 93%
    04:00 +8°C° 1.5 mm 3 mps 733 mmHg 93%
    05:00 +7°C° 1.5 mm 4 mps 733 mmHg 92%
    06:00 +7°C° 1.5 mm 5 mps 734 mmHg 92%
    07:00 +8°C° 0.7 mm 6 mps 735 mmHg 90%
    08:00 +8°C° 0.7 mm 6 mps 736 mmHg 88%
    09:00 +8°C° 0.7 mm 6 mps 737 mmHg 86%
    10:00 +9°C° 0.3 mm 6 mps 738 mmHg 83%
    11:00 +9°C° 0.3 mm 6 mps 739 mmHg 81%
    12:00 +9°C° 0.3 mm 7 mps 740 mmHg 79%
    13:00 +9°C° 0.3 mm 6 mps 740 mmHg 78%
    14:00 +9°C° 0.3 mm 6 mps 741 mmHg 77%
    15:00 +9°C° 0.3 mm 6 mps 742 mmHg 76%
    16:00 +8°C° 0.3 mm 5 mps 742 mmHg 79%
    17:00 +8°C° 0.3 mm 4 mps 743 mmHg 82%
    18:00 +8°C° 0.3 mm 3 mps 743 mmHg 84%
    19:00 +7°C° 0 mm 3 mps 744 mmHg 86%
    20:00 +5°C° 0 mm 3 mps 744 mmHg 88%
    21:00 +5°C° 0 mm 3 mps 745 mmHg 89%
    22:00 +5°C° 0 mm 2 mps 745 mmHg 89%
    23:00 +5°C° 0 mm 2 mps 745 mmHg 89%

    20 September, Friday

    Time Temperature Precipitation Wind Pressure Humidity
    00:00 +4°C° 0 mm 2 mps 745 mmHg 88%
    01:00 +4°C° 0 mm 2 mps 745 mmHg 88%
    02:00 +4°C° 0 mm 2 mps 745 mmHg 89%
    03:00 +3°C° 0 mm 2 mps 746 mmHg 89%
    04:00 +3°C° 0 mm 2 mps 746 mmHg 89%
    05:00 +4°C° 0 mm 1 mps 746 mmHg 90%
    06:00 +4°C° 0 mm 1 mps 746 mmHg 90%
    07:00 +6°C° 0 mm 1 mps 746 mmHg 85%
    08:00 +7°C° 0 mm 1 mps 746 mmHg 80%
    09:00 +8°C° 0 mm 1 mps 746 mmHg 75%
    10:00 +8°C° 0.1 mm 1 mps 746 mmHg 77%
    11:00 +7°C° 0.1 mm 2 mps 746 mmHg 79%
    12:00 +7°C° 0.1 mm 2 mps 746 mmHg 80%
    13:00 +7°C° 0 mm 2 mps 746 mmHg 80%
    14:00 +7°C° 0 mm 2 mps 746 mmHg 79%
    15:00 +7°C° 0 mm 2 mps 746 mmHg 78%
    16:00 +7°C° 0 mm 2 mps 746 mmHg 79%
    17:00 +8°C° 0 mm 1 mps 746 mmHg 80%
    18:00 +8°C° 0 mm 1 mps 746 mmHg 81%
    19:00 +7°C° 0 mm 1 mps 746 mmHg 81%
    20:00 +5°C° 0 mm 2 mps 747 mmHg 81%
    21:00 +5°C° 0 mm 2 mps 747 mmHg 82%
    22:00 +5°C° 0 mm 1 mps 747 mmHg 81%
    23:00 +5°C° 0 mm 1 mps 747 mmHg 81%

    21 September, Saturday

    Time Temperature Precipitation Wind Pressure Humidity
    00:00 +4°C° 0 mm 1 mps 747 mmHg 81%
    01:00 +4°C° 0 mm 1 mps 747 mmHg 82%
    02:00 +3°C° 0 mm 1 mps 747 mmHg 82%
    03:00 +3°C° 0 mm 1 mps 747 mmHg 83%
    04:00 +3°C° 0 mm 1 mps 747 mmHg 84%
    05:00 +3°C° 0 mm 1 mps 747 mmHg 85%
    06:00 +2°C° 0 mm 1 mps 748 mmHg 87%
    07:00 +3°C° 0 mm 2 mps 748 mmHg 82%
    08:00 +5°C° 0 mm 2 mps 748 mmHg 76%
    09:00 +6°C° 0 mm 2 mps 748 mmHg 71%
    10:00 +7°C° 0 mm 3 mps 748 mmHg 66%
    11:00 +8°C° 0 mm 3 mps 748 mmHg 60%
    12:00 +9°C° 0 mm 3 mps 748 mmHg 55%
    13:00 +9°C° 0 mm 3 mps 748 mmHg 52%
    14:00 +9°C° 0 mm 3 mps 747 mmHg 49%
    15:00 +9°C° 0 mm 3 mps 747 mmHg 47%
    16:00 +8°C° 0 mm 3 mps 747 mmHg 52%
    17:00 +7°C° 0 mm 3 mps 748 mmHg 57%
    18:00 +5°C° 0 mm 3 mps 748 mmHg 61%
    19:00 +5°C° 0 mm 2 mps 748 mmHg 64%
    20:00 +4°C° 0 mm 2 mps 749 mmHg 67%
    21:00 +3°C° 0 mm 2 mps 749 mmHg 69%
    22:00 +3°C° 0 mm 2 mps 749 mmHg 73%
    23:00 +2°C° 0 mm 2 mps 749 mmHg 76%
    Show more